Terminal Aerodrome Forecast
Issued by NWS

Home | Current Version | Previous Version | Text Only | Print | Product List | Glossary On
Versions: 1 2 3 4 5 6 7 8 9 10 11 12 13 14 15 16 17 18 19 20 21 22 23 24 25 26 27 28 29 30 31 32 33 34 35 36 37 38 39 40 41 42
000
FTUS46 KPQR 281406 AAA
TAFONP
TAF AMD
KONP 281406Z 2814/2912 20022G32KT 3SM -RA BR OVC007
     FM281700 22015G25KT 4SM -RA BR SCT008 BKN012 OVC025
     FM282000 22015G25KT 3SM RA BR SCT008 BKN012 OVC020
     FM290300 29011G20KT 5SM -SHRA SCT010 BKN015 OVC025=

USA.gov is the U.S. government's official web portal to all federal, state and local government web resources and services.